Waarnemingen

Advertentie
Mijn weer
Westdorpe aws, Nederland (6319): temperatuur & dauwpunt: 19.09.2017 06:00:00 - 25.09.2017 06:00:00 (CEST)Westdorpe aws, Nederland (6319): temperatuur 5cm: 19.09.2017 06:00:00 - 25.09.2017 06:00:00 (CEST)Westdorpe aws, Nederland (6319): windsnelheid & windstoten: 19.09.2017 06:00:00 - 25.09.2017 06:00:00 (CEST)Westdorpe aws, Nederland (6319): windrichting: 19.09.2017 06:00:00 - 25.09.2017 06:00:00 (CEST)Westdorpe aws, Nederland (6319): luchtdruk: 19.09.2017 06:00:00 - 25.09.2017 06:00:00 (CEST)Westdorpe aws, Nederland (6319): zicht: 19.09.2017 06:00:00 - 25.09.2017 06:00:00 (CEST)Westdorpe aws, Nederland (6319): neerslag: 19.09.2017 06:00:00 - 25.09.2017 06:00:00 (CEST)
Datum & Tijd tt [°C] td [°C] tt 5cm [°C] ff [km/u] ff [kn] fx [km/u] fx [kn] dd ppp [hPa] vv [km] rr [mm]
25.09.2017 06:00:00 10,5 9,9 8,2 11 6 11 6 O 1020,2 2,5 0,0
25.09.2017 05:00:00 9,4 8,9 7,4 7 4 11 6 ONO 1020,3 1,0 0,0
25.09.2017 04:00:00 11,9 10,6 10,2 7 4 14 8 OZO 1020,6 4,3 0,0
25.09.2017 03:00:00 12,3 10,9 10,2 7 4 14 8 O 1020,8 5 0,0
25.09.2017 02:00:00 12,6 10,9 10,9 7 4 14 8 O 1021,2 6 0,0
25.09.2017 01:00:00 13,4 11,4 11,3 7 4 14 8 O 1021,5 6 0,0
25.09.2017 00:00:00 13,1 11,0 10,4 7 4 14 8 O 1021,7 7 0,0
24.09.2017 23:00:00 13,0 10,7 9,9 7 4 11 6 O 1021,5 8 0,0
24.09.2017 22:00:00 14,5 11,2 12,5 7 4 14 8 O 1021,6 10 0,0
24.09.2017 21:00:00 14,8 11,3 12,4 11 6 14 8 O 1021,5 11 0,0
24.09.2017 20:00:00 14,0 10,4 11,1 7 4 11 6 O 1021,4 25 0,0
24.09.2017 19:00:00 17,5 11,2 16,2 7 4 18 10 O 1021,1 34 0,0
24.09.2017 18:00:00 19,8 11,4 20,1 11 6 18 10 O 1021,0 31 0,0
24.09.2017 17:00:00 20,3 10,5 21,5 11 6 22 12 O 1021,3 20 0,0
24.09.2017 16:00:00 20,4 11,2 22,5 11 6 22 12 OZO 1021,5 14 0,0
24.09.2017 15:00:00 20,2 10,8 23,0 11 6 25 14 OZO 1021,7 29 0,0
24.09.2017 14:00:00 19,4 12,2 22,0 14 8 22 12 OZO 1022,0 15 0,0
24.09.2017 13:00:00 18,8 13,3 21,5 11 6 18 10 O 1022,2 11 0,0
24.09.2017 12:00:00 17,5 12,9 19,6 7 4 14 8 ZO 1022,5 8 0,0
24.09.2017 11:00:00 14,2 12,0 15,0 11 6 14 8 OZO 1022,5 4,4 0,0
24.09.2017 10:00:00 11,6 11,0 12,1 7 4 11 6 OZO 1022,5 2,3 0,0
24.09.2017 09:00:00 9,8 9,8 10,0 4 2 14 8 OZO 1022,3 1,5 0,0
24.09.2017 08:00:00 6,0 5,9 4,0 11 6 11 6 O 1021,9 0,4 0,0
24.09.2017 07:00:00 4,7 4,7 3,3 4 2 7 4 ZO 1021,8 1,3 0,0
24.09.2017 06:00:00 5,2 5,1 3,5 4 2 7 4 O 1021,8 2,3 0,0
24.09.2017 05:00:00 5,3 5,2 3,7 4 2 7 4 ZO 1021,7 2,3 0,0
24.09.2017 04:00:00 6,7 6,7 3,9 0 0 7 4 N 1022,0 1,1 0,0
24.09.2017 03:00:00 5,9 5,9 3,6 0 0 4 2 N 1022,3 2,9 0,0
24.09.2017 02:00:00 6,9 6,6 3,8 0 0 7 4 N 1022,5 3,8 0,0
24.09.2017 01:00:00 7,1 7,1 4,1 0 0 4 2 N 1022,7 3,2 0,0
24.09.2017 00:00:00 8,2 8,2 4,5 4 2 7 4 O 1022,7 7 0,0
23.09.2017 23:00:00 9,0 7,9 5,8 4 2 7 4 O 1022,8 14 0,0
23.09.2017 22:00:00 10,0 9,4 7,2 7 4 7 4 O 1023,0 15 0,0
23.09.2017 21:00:00 10,6 9,0 8,6 4 2 11 6 O 1022,7 17 0,0
23.09.2017 20:00:00 12,7 10,3 10,6 7 4 11 6 ONO 1022,6 33 0,0
23.09.2017 19:00:00 17,2 10,7 16,9 4 2 7 4 ONO 1022,7 42 0,0
23.09.2017 18:00:00 18,1 9,1 19,0 4 2 11 6 O 1022,6 39 0,0
23.09.2017 17:00:00 18,4 9,7 20,5 7 4 18 10 ZO 1022,7 36 0,0
23.09.2017 16:00:00 18,5 10,2 20,9 11 6 18 10 ONO 1023,3 35 0,0
23.09.2017 15:00:00 18,4 9,9 19,4 7 4 14 8 OZO 1023,8 37 0,0
23.09.2017 14:00:00 18,2 10,5 20,7 4 2 14 8 NW 1024,1 42 0,0
23.09.2017 13:00:00 17,4 10,8 20,3 7 4 14 8 OZO 1024,5 29 0,0
23.09.2017 12:00:00 16,2 11,1 18,2 7 4 14 8 OZO 1024,5 25 0,0
23.09.2017 11:00:00 14,8 12,0 16,2 7 4 11 6 ZO 1024,7 16 0,0
23.09.2017 10:00:00 10,7 10,6 11,7 7 4 11 6 ZO 1024,7 1,9 0,0
23.09.2017 09:00:00 8,3 8,2 9,2 0 0 7 4 N 1024,4 0,3 0,0
23.09.2017 08:00:00 6,4 6,4 5,8 4 2 11 6 OZO 1024,5 0,6 0,0
23.09.2017 07:00:00 6,1 6,1 4,9 4 2 7 4 ZZO 1024,0 1,3 0,0
23.09.2017 06:00:00 5,5 5,3 4,6 0 0 7 4 N 1024,1 3,9 0,0
23.09.2017 05:00:00 5,5 5,5 4,0 0 0 4 2 N 1024,1 0,6 0,0
23.09.2017 04:00:00 5,5 5,5 3,2 0 0 4 2 N 1024,2 0,2 0,0
23.09.2017 03:00:00 5,5 5,3 3,6 0 0 4 2 N 1024,2 6 0,0
23.09.2017 02:00:00 5,8 5,7 4,0 4 2 4 2 O 1024,0 0,3 0,0
23.09.2017 01:00:00 6,6 6,6 4,0 4 2 7 4 ZZW 1023,9 0,3 0,0
23.09.2017 00:00:00 7,7 7,5 4,8 0 0 4 2 N 1023,8 0,2 0,0
22.09.2017 23:00:00 8,7 8,6 5,5 4 2 4 2 Z 1023,7 0,4 0,0
22.09.2017 22:00:00 10,2 9,7 6,8 4 2 4 2 ZW 1023,4 13 0,0
22.09.2017 21:00:00 11,1 9,8 8,4 4 2 11 6 NW 1023,1 36 0,0
22.09.2017 20:00:00 12,8 10,9 11,5 11 6 14 8 NW 1022,7 43 0,0
22.09.2017 19:00:00 16,1 11,8 15,6 11 6 22 12 NW 1022,1 44 0,0
22.09.2017 18:00:00 17,0 11,8 17,6 14 8 22 12 NNW 1021,7 41 0,0
22.09.2017 17:00:00 17,6 11,9 18,9 14 8 25 14 WNW 1021,5 40 0,0
22.09.2017 16:00:00 18,1 13,2 19,3 18 10 25 14 NW 1021,3 40 0,0
22.09.2017 15:00:00 18,3 13,4 19,0 22 12 29 16 NW 1021,1 46 0,0
22.09.2017 14:00:00 17,5 14,1 18,2 14 8 25 14 NW 1020,9 45 0,0
22.09.2017 13:00:00 17,1 14,7 18,8 7 4 11 6 ZW 1020,6 13 0,0
22.09.2017 12:00:00 16,2 14,4 17,1 7 4 14 8 WZW 1020,7 12 0,0
22.09.2017 11:00:00 15,1 13,3 16,0 7 4 11 6 Z 1020,4 12 0,0
22.09.2017 10:00:00 13,7 12,8 13,9 4 2 7 4 Z 1020,3 9 0,0
22.09.2017 09:00:00 12,5 12,1 12,5 4 2 7 4 ZZW 1019,7 7 0,0
22.09.2017 08:00:00 11,9 11,4 11,7 0 0 7 4 N 1019,5 7 0,0
22.09.2017 07:00:00 11,5 10,8 10,9 4 2 7 4 ZW 1019,2 11 0,0
22.09.2017 06:00:00 10,0 9,6 9,6 0 0 7 4 N 1018,9 9 0,0
22.09.2017 05:00:00 10,7 10,0 9,0 7 4 11 6 ZZW 1018,9 13 0,0
22.09.2017 04:00:00 11,0 9,5 9,3 7 4 11 6 ZZO 1018,8 24 0,0
22.09.2017 03:00:00 10,8 9,4 8,3 7 4 11 6 ZZO 1019,1 25 0,0
22.09.2017 02:00:00 10,5 9,3 8,8 7 4 11 6 ZO 1019,0 23 0,0
22.09.2017 01:00:00 11,5 9,6 8,9 7 4 7 4 ZZO 1018,8 41 0,0
22.09.2017 00:00:00 12,0 9,8 9,6 4 2 11 6 ZO 1018,9 43 0,0
21.09.2017 23:00:00 13,0 10,1 10,5 7 4 11 6 ZZO 1018,9 46 0,0
21.09.2017 22:00:00 13,4 10,4 11,4 7 4 11 6 ZO 1018,8 49 0,0
21.09.2017 21:00:00 14,0 10,6 11,8 7 4 11 6 ZZO 1018,8 49 0,0
21.09.2017 20:00:00 15,1 10,8 12,5 7 4 11 6 ZZO 1018,5 48 0,0
21.09.2017 19:00:00 17,4 10,9 16,1 4 2 14 8 Z 1018,0 50 0,0
21.09.2017 18:00:00 18,5 10,3 18,6 11 6 18 10 Z 1017,8 48 0,0
21.09.2017 17:00:00 18,5 10,5 19,0 14 8 22 12 Z 1017,9 46 0,0
21.09.2017 16:00:00 18,9 10,0 20,2 14 8 29 16 Z 1018,0 46 0,0
21.09.2017 15:00:00 19,2 10,6 21,7 14 8 29 16 Z 1018,3 46 0,0
21.09.2017 14:00:00 18,4 10,9 20,8 14 8 29 16 Z 1018,8 45 0,0
21.09.2017 13:00:00 17,5 10,5 19,4 18 10 25 14 Z 1019,2 40 0,0
21.09.2017 12:00:00 16,0 10,6 17,3 14 8 22 12 Z 1019,4 43 0,0
21.09.2017 11:00:00 14,4 10,1 14,9 11 6 18 10 Z 1019,6 35 0,0
21.09.2017 10:00:00 12,3 9,5 12,5 11 6 22 12 Z 1019,6 29 0,0
21.09.2017 09:00:00 10,8 9,0 10,6 11 6 18 10 ZZO 1019,4 18 0,0
21.09.2017 08:00:00 9,5 8,3 8,7 7 4 14 8 ZZO 1019,3 16 0,0
21.09.2017 07:00:00 9,5 8,3 8,6 11 6 18 10 ZZO 1019,1 15 0,0
21.09.2017 06:00:00 9,8 8,5 8,9 11 6 14 8 ZZO 1019,2 15 0,0
21.09.2017 05:00:00 10,1 8,8 9,3 11 6 18 10 ZO 1019,4 19 0,0
21.09.2017 04:00:00 10,5 9,0 9,6 11 6 18 10 ZZO 1019,5 23 0,0
21.09.2017 03:00:00 11,1 9,4 10,1 11 6 18 10 ZZO 1019,7 29 0,0
21.09.2017 02:00:00 11,9 9,9 10,8 11 6 14 8 ZZO 1019,9 35 0,0
21.09.2017 01:00:00 12,4 10,3 11,3 11 6 18 10 ZZO 1019,9 39 0,0
21.09.2017 00:00:00 13,2 10,9 11,9 7 4 18 10 ZZO 1019,9 39 0,0
20.09.2017 23:00:00 14,1 11,5 13,4 11 6 14 8 ZZO 1019,9 47 0,0
20.09.2017 22:00:00 14,2 11,5 12,8 4 2 14 8 Z 1019,9 49 0,0
20.09.2017 21:00:00 14,5 11,5 13,6 11 6 18 10 ZW 1020,1 46 0,0
20.09.2017 20:00:00 15,3 11,5 14,3 11 6 18 10 ZW 1019,8 48 0,0
20.09.2017 19:00:00 16,0 11,7 15,7 11 6 22 12 ZW 1019,7 47 0,0
20.09.2017 18:00:00 16,6 10,9 16,7 18 10 29 16 ZW 1019,7 50 0,0
20.09.2017 17:00:00 17,3 10,5 18,3 22 12 29 16 ZW 1019,9 42 0,0
20.09.2017 16:00:00 17,0 11,6 17,2 14 8 25 14 ZW 1020,2 46 0,0
20.09.2017 15:00:00 17,2 10,2 19,0 14 8 25 14 WZW 1020,3 46 0,0
20.09.2017 14:00:00 16,7 10,8 17,6 14 8 25 14 WZW 1020,7 40 0,0
20.09.2017 13:00:00 16,9 11,7 19,8 14 8 25 14 ZW 1020,8 30 0,0
20.09.2017 12:00:00 15,4 12,4 17,0 18 10 25 14 ZW 1021,1 19 0,0
20.09.2017 11:00:00 13,8 11,4 14,8 14 8 18 10 ZW 1021,0 19 0,0
20.09.2017 10:00:00 12,2 10,7 12,0 7 4 18 10 ZZW 1021,0 9 0,0
20.09.2017 09:00:00 11,0 9,3 10,3 11 6 18 10 ZZW 1021,1 13 0,0
20.09.2017 08:00:00 8,2 8,1 6,6 4 2 11 6 Z 1021,0 2,4 0,0
20.09.2017 07:00:00 8,7 8,3 7,9 7 4 14 8 ZZW 1020,8 3,8 0,0
20.09.2017 06:00:00 8,9 8,3 7,4 7 4 14 8 ZZW 1020,7 7 0,0
20.09.2017 05:00:00 9,2 8,5 7,9 7 4 14 8 ZZW 1020,9 7 0,0
20.09.2017 04:00:00 10,2 9,2 8,9 11 6 18 10 ZW 1021,1 10 0,0
20.09.2017 03:00:00 10,6 9,9 9,6 11 6 18 10 ZW 1021,5 10 0,0
20.09.2017 02:00:00 10,9 10,5 9,2 11 6 14 8 ZW 1021,5 9 0,0
20.09.2017 01:00:00 11,4 11,2 9,8 7 4 7 4 Z 1021,5 11 0,0
20.09.2017 00:00:00 11,4 11,0 10,4 4 2 11 6 ZZW 1021,7 46 0,0
19.09.2017 23:00:00 12,4 11,5 12,1 7 4 22 12 NNW 1021,8 13 0,6
19.09.2017 22:00:00 12,6 11,8 12,1 7 4 11 6 W 1021,7 23 0,0
19.09.2017 21:00:00 11,3 10,3 9,5 7 4 11 6 W 1021,3 48 0,0
19.09.2017 20:00:00 13,1 11,0 11,9 11 6 18 10 WNW 1020,7 49 0,0
19.09.2017 19:00:00 15,4 11,3 15,2 11 6 22 12 WNW 1020,5 50 0,0
19.09.2017 18:00:00 16,1 11,3 16,5 14 8 22 12 WNW 1020,1 49 0,0
19.09.2017 17:00:00 17,4 11,5 18,9 14 8 22 12 WNW 1019,8 44 0,0
19.09.2017 16:00:00 17,2 10,5 18,1 7 4 22 12 NW 1019,7 43 0,0
19.09.2017 15:00:00 17,1 10,4 18,3 11 6 18 10 NNW 1019,6 47 0,0
19.09.2017 14:00:00 16,8 10,5 16,5 4 2 18 10 NW 1019,5 45 0,0
19.09.2017 13:00:00 16,9 10,9 19,2 11 6 22 12 NNO 1019,4 41 0,0
19.09.2017 12:00:00 16,1 10,9 17,0 18 10 25 14 NNW 1019,2 42 0,0
19.09.2017 11:00:00 15,8 10,6 17,2 14 8 22 12 NNW 1018,6 43 0,0
19.09.2017 10:00:00 14,4 11,7 15,0 7 4 11 6 NNW 1018,1 42 0,0
19.09.2017 09:00:00 12,3 11,3 12,2 7 4 14 8 W 1017,2 36 0,0
19.09.2017 08:00:00 11,3 11,0 10,9 11 6 14 8 W 1017,0 22 0,0
19.09.2017 07:00:00 10,7 10,2 10,3 11 6 22 12 W 1016,6 32 2,6
19.09.2017 06:00:00 10,6 9,7 10,3 14 8 18 10 W 1016,5 17 2,3

tt = temperatuur
td = dauwpunt
tt 5cm = temperatuur 5cm
ff = windsnelheid
fx = windstoten
dd = windrichting
ppp = luchtdruk
vv = zicht
rr = neerslag

Weerstations in de omgeving